Location: Quedlinburg
(51.7921°N, 11.1414°E)
Time: 08:47:35
(UTC+02:00)

SO-50 - Pass Details

Date: 16 March 2026
Orbit: 567 x 673 km, 64.6° (Epoch: 13 April)

Event Time Altitude Azimuth Distance (km) Brightness Sun altitude
Rises 21:17:12 0° 283° (WNW) 2,991 ? -26.4°
Reaches altitude 10° 21:20:05 10° 301° (WNW) 2,094 ? -26.7°
Maximum altitude 21:23:33 20° 348° (NNW) 1,562 ? -27.2°
Enters shadow 21:26:57 11° 33° (NNE) 2,082 ? -27.6°
